STARLINK-5767, 55586

Orbit data source: Space-Track

STARLINK-5767, 55586 is a payload satellite owned by SpaceX/Seattle (US) in LEO that was launched on Sun, 12 Feb 2023 UTC via an FALCON 9 launch vehicle from the Air Force Eastern Test Range (AFETR). Payload-class satellites include a variety of spacecraft equipped with specific instruments for various scientific and technological missions. These include communications satellites like Starlink; space stations such as the ISS; scientific satellites like the Hubble; Earth observation satellites from companies like Planet Labs, Umbra, and HawkEye 360; GPS; miniature CubeSats for education and research; and military/defense satellites.

Loading next visibility...
Identifier
55586, 2023-020T
Orbit
LEO
Country
Flag of USUS
Related business
Manufacturer
SpaceX/Seattle
Mission
Operational Commercial Communications
Bus & Motor
STARLINK, Unknown motor
Mass
305 kg wet, ~290 kg dry
Launch date (UTC)
2023-02-12 (3 years ago)
Launch vehicle
FALCON 9
Launch site
Air Force Eastern Test Range (AFETR)
Object type
Payload
Rocket body
Debris
Shape & HBR
Box + 1 Pan, 10.1 m
Radar Cross Section
13.562 m², Large (>1 m²)

Expand to show TLE details & history
Last TLE update: 2 days ago

TLE from 2 days ago
0 STARLINK-5767
1 55586U 23020T   26171.36824272 -.00000232  00000-0  10869-5 0  9994
2 55586  43.0020 145.5418 0001200 268.9144  91.1571 15.27573550184619
Epoch: 2026-06-20T08:50Z
TLE epoch observation values (Epoch: 2026-06-20T08:50:16.171Z)
Latitude
0.00006°
Longitude
104.39061°
Altitude
482.861 km
Speed
7.626 km/s
True Right ascension
09h 42m 10s
True Declination
0° 00' 00"
Sunlit
Object was in daylight at epoch
Visualization orbit readout
Latitude
Unknown
Longitude
Unknown
Altitude
Unknown
Speed
Unknown
Apparent Right ascension
Unknown
Apparent Declination
Unknown
Sunlit
N/A
Visualization observer readout
Local Sidereal Time
21:39:16
Azimuth
Unknown
Elevation
Unknown
Doppler factor
Unknown
Orbital elements
Apogee altitude
485.837 km
Perigee altitude
484.19 km
Semi-major axis
6,863.15 km
Eccentricity
0.00012
Inclination
43.002°
RAAN
145.5418°
Arg. of periapsis
268.9144°
True anomaly
91.17085°
Mean anomaly
91.1571°
Eccentric anomaly
91.16397°
Mean motion
3.81731 °/min
Orbital period
94.31 mins
BSTAR
0.0000010869
Loading maneuver chart data...
Computing Atmospheric mass density...
Loading historical data...
Loading historical data...
Loading historical data...
Loading historical data...
Loading historical data...
Loading historical data...
Loading historical data...

Documentation

Showing up to 5 results
|